TimeCST,TemperatureF,Dew PointF,Humidity,Sea Level PressureIn,VisibilityMPH,Wind Direction,Wind SpeedMPH,Gust SpeedMPH,PrecipitationIn,Events,Conditions,WindDirDegrees,DateUTC
12:15 AM,30.2,19.8,65,30.26,10.0,NNW,6.9,-,N/A,,Overcast,340,2013-03-02 06:15:00
12:56 AM,30.2,19.4,64,30.27,10.0,NNW,11.5,-,N/A,,Overcast,340,2013-03-02 06:56:00
1:15 AM,30.2,18.5,62,30.26,10.0,NNW,9.2,-,N/A,,Overcast,340,2013-03-02 07:15:00
1:35 AM,30.2,18.5,62,30.26,10.0,NNW,9.2,-,N/A,,Overcast,330,2013-03-02 07:35:00
1:55 AM,30.0,18.3,62,30.26,10.0,NNW,9.2,-,N/A,,Overcast,330,2013-03-02 07:55:00
2:15 AM,29.8,18.1,62,30.25,10.0,NNW,8.1,-,N/A,,Overcast,330,2013-03-02 08:15:00
2:35 AM,29.7,17.8,61,30.25,10.0,NNW,9.2,-,N/A,,Overcast,330,2013-03-02 08:35:00
2:55 AM,29.3,17.2,61,30.25,10.0,NNW,9.2,-,N/A,,Overcast,330,2013-03-02 08:55:00
3:15 AM,29.1,16.7,60,30.25,10.0,NNW,8.1,-,N/A,,Overcast,330,2013-03-02 09:15:00
3:55 AM,28.4,16.2,60,30.24,10.0,NW,6.9,-,N/A,,Overcast,320,2013-03-02 09:55:00
4:15 AM,28.4,16.0,60,30.24,10.0,NNW,4.6,-,N/A,,Overcast,330,2013-03-02 10:15:00
4:35 AM,28.0,16.0,61,30.25,10.0,NNW,6.9,-,N/A,,Overcast,330,2013-03-02 10:35:00
4:55 AM,27.1,15.3,61,30.25,10.0,NW,6.9,-,N/A,,Overcast,320,2013-03-02 10:55:00
5:15 AM,25.3,13.8,62,30.25,10.0,NW,4.6,-,N/A,,Scattered Clouds,310,2013-03-02 11:15:00
6:15 AM,22.6,12.9,66,30.27,10.0,NW,6.9,-,N/A,,Clear,310,2013-03-02 12:15:00
6:35 AM,21.9,12.7,68,30.27,10.0,NW,5.8,-,N/A,,Clear,320,2013-03-02 12:35:00
6:55 AM,20.8,12.2,69,30.27,10.0,NW,5.8,-,N/A,,Clear,320,2013-03-02 12:55:00
7:15 AM,21.0,12.0,68,30.28,10.0,NW,5.8,-,N/A,,Clear,310,2013-03-02 13:15:00
7:35 AM,21.4,12.0,67,30.28,10.0,NW,8.1,-,N/A,,Clear,320,2013-03-02 13:35:00
7:55 AM,21.2,11.5,66,30.28,10.0,NW,9.2,-,N/A,,Clear,320,2013-03-02 13:55:00
8:15 AM,21.7,11.3,64,30.28,10.0,NW,8.1,-,N/A,,Clear,320,2013-03-02 14:15:00
8:35 AM,22.1,10.9,62,30.28,10.0,NW,5.8,-,N/A,,Clear,320,2013-03-02 14:35:00
8:55 AM,23.2,10.9,60,30.28,10.0,NW,5.8,-,N/A,,Clear,310,2013-03-02 14:55:00
9:15 AM,24.1,10.8,57,30.28,10.0,NW,5.8,-,N/A,,Clear,310,2013-03-02 15:15:00
9:35 AM,25.3,10.8,54,30.28,10.0,WNW,5.8,-,N/A,,Clear,300,2013-03-02 15:35:00
9:55 AM,25.9,10.6,52,30.29,10.0,WNW,6.9,-,N/A,,Clear,300,2013-03-02 15:55:00
10:15 AM,27.3,11.7,52,30.29,10.0,West,6.9,-,N/A,,Clear,280,2013-03-02 16:15:00
10:35 AM,28.2,11.5,50,30.29,10.0,West,6.9,-,N/A,,Clear,280,2013-03-02 16:35:00
10:55 AM,28.9,11.5,48,30.28,10.0,WNW,5.8,-,N/A,,Clear,290,2013-03-02 16:55:00
11:15 AM,29.7,12.2,48,30.28,10.0,NNW,6.9,-,N/A,,Clear,340,2013-03-02 17:15:00
11:35 AM,29.8,12.0,48,30.28,10.0,WNW,4.6,-,N/A,,Clear,300,2013-03-02 17:35:00
11:55 AM,30.9,11.7,45,30.28,10.0,NW,5.8,-,N/A,,Clear,310,2013-03-02 17:55:00
12:15 PM,31.6,10.8,42,30.27,10.0,NW,5.8,-,N/A,,Clear,320,2013-03-02 18:15:00
12:35 PM,32.0,10.6,41,30.26,10.0,NW,9.2,-,N/A,,Clear,320,2013-03-02 18:35:00
12:55 PM,32.0,10.9,42,30.25,10.0,NW,6.9,-,N/A,,Clear,320,2013-03-02 18:55:00
1:15 PM,32.7,10.0,39,30.25,10.0,NW,5.8,-,N/A,,Clear,310,2013-03-02 19:15:00
1:35 PM,33.1,9.5,37,30.24,10.0,NW,6.9,-,N/A,,Clear,320,2013-03-02 19:35:00
1:55 PM,32.5,9.7,39,30.23,10.0,NNW,9.2,-,N/A,,Clear,340,2013-03-02 19:55:00
2:15 PM,32.9,9.3,37,30.23,10.0,NNW,10.4,-,N/A,,Clear,330,2013-03-02 20:15:00
2:35 PM,32.9,7.5,35,30.23,10.0,NNW,11.5,-,N/A,,Clear,330,2013-03-02 20:35:00
2:55 PM,32.5,8.2,36,30.23,10.0,NNW,11.5,-,N/A,,Clear,330,2013-03-02 20:55:00
3:15 PM,32.5,9.0,37,30.23,10.0,NNW,11.5,-,N/A,,Clear,330,2013-03-02 21:15:00
3:35 PM,32.4,9.5,39,30.24,10.0,NNW,10.4,-,N/A,,Clear,330,2013-03-02 21:35:00
3:55 PM,32.4,8.8,37,30.24,10.0,NNW,10.4,-,N/A,,Clear,330,2013-03-02 21:55:00
4:15 PM,32.0,8.6,38,30.24,10.0,NNW,9.2,-,N/A,,Clear,330,2013-03-02 22:15:00
4:35 PM,31.5,10.6,42,30.24,10.0,NNW,8.1,-,N/A,,Clear,340,2013-03-02 22:35:00
4:55 PM,31.6,10.2,41,30.23,10.0,NNW,9.2,-,N/A,,Clear,330,2013-03-02 22:55:00
5:15 PM,30.7,10.4,43,30.24,10.0,NNW,9.2,-,N/A,,Clear,330,2013-03-02 23:15:00
5:35 PM,29.5,11.1,46,30.23,10.0,NW,5.8,-,N/A,,Clear,320,2013-03-02 23:35:00
5:55 PM,28.8,10.2,46,30.23,10.0,NW,5.8,-,N/A,,Clear,320,2013-03-02 23:55:00
6:15 PM,27.5,10.4,49,30.24,10.0,NNW,5.8,-,N/A,,Clear,330,2013-03-03 00:15:00
6:35 PM,26.6,10.4,51,30.24,10.0,NNW,5.8,-,N/A,,Clear,330,2013-03-03 00:35:00
6:55 PM,25.7,10.0,52,30.24,10.0,NNW,5.8,-,N/A,,Clear,340,2013-03-03 00:55:00
7:15 PM,25.7,11.1,54,30.23,10.0,NNW,3.5,-,N/A,,Clear,330,2013-03-03 01:15:00
7:35 PM,24.8,11.1,56,30.23,10.0,Calm,Calm,-,N/A,,Clear,0,2013-03-03 01:35:00
7:55 PM,24.1,11.3,58,30.23,10.0,West,3.5,-,N/A,,Clear,270,2013-03-03 01:55:00
8:15 PM,23.7,12.2,61,30.23,10.0,WNW,4.6,-,N/A,,Clear,290,2013-03-03 02:15:00
8:35 PM,24.4,12.0,59,30.23,10.0,West,3.5,-,N/A,,Clear,280,2013-03-03 02:35:00
8:55 PM,23.0,12.2,63,30.23,10.0,West,4.6,-,N/A,,Clear,270,2013-03-03 02:55:00
9:15 PM,21.7,12.0,66,30.23,10.0,West,3.5,-,N/A,,Clear,280,2013-03-03 03:15:00
9:35 PM,22.3,12.0,65,30.23,10.0,WNW,4.6,-,N/A,,Clear,290,2013-03-03 03:35:00
9:55 PM,23.0,11.8,62,30.22,10.0,Calm,Calm,-,N/A,,Clear,0,2013-03-03 03:55:00
10:15 PM,21.4,12.4,68,30.23,10.0,NW,3.5,-,N/A,,Clear,310,2013-03-03 04:15:00
10:35 PM,21.4,12.7,69,30.22,10.0,NW,3.5,-,N/A,,Clear,320,2013-03-03 04:35:00
10:55 PM,20.8,12.4,70,30.22,10.0,NW,3.5,-,N/A,,Clear,310,2013-03-03 04:55:00
11:15 PM,21.0,12.7,70,30.22,10.0,Calm,Calm,-,N/A,,Clear,0,2013-03-03 05:15:00
11:35 PM,19.9,12.0,71,30.21,10.0,NNW,3.5,-,N/A,,Clear,330,2013-03-03 05:35:00
11:55 PM,18.0,10.8,73,30.20,10.0,Calm,Calm,-,N/A,,Clear,0,2013-03-03 05:55:00